Time,TemperatureF,DewpointF,PressureIn,WindDirection,WindDirectionDegrees,WindSpeedMPH,WindSpeedGustMPH,Humidity,HourlyPrecipIn,Conditions,Clouds,dailyrainin,SoftwareType,DateUTC
2013-04-06 00:22:00,54.0,48.0,30.04,North,-999,0.0,0.0,79,0.00,,,-99.99,,2013-04-06 07:22:00,
2013-04-06 00:32:00,54.0,48.0,30.04,North,-999,0.0,0.0,79,0.00,,,-99.99,,2013-04-06 07:32:00,
2013-04-06 00:42:00,54.0,48.0,30.04,North,-999,0.0,0.0,79,0.00,,,-99.99,,2013-04-06 07:42:00,
2013-04-06 01:22:00,53.0,47.0,30.04,North,-999,0.0,0.0,80,0.00,,,-99.99,,2013-04-06 08:22:00,
2013-04-06 01:32:00,53.0,47.0,30.04,North,-999,0.0,0.0,80,0.00,,,-99.99,,2013-04-06 08:32:00,
2013-04-06 01:42:00,53.0,47.0,30.04,North,-999,0.0,0.0,80,0.00,,,-99.99,,2013-04-06 08:42:00,
2013-04-06 02:22:00,52.0,47.0,30.03,North,-999,0.0,0.0,83,0.00,,,-99.99,,2013-04-06 09:22:00,
2013-04-06 02:32:00,52.0,47.0,30.03,North,-999,0.0,0.0,83,0.00,,,-99.99,,2013-04-06 09:32:00,
2013-04-06 02:42:00,52.0,47.0,30.03,North,-999,0.0,0.0,83,0.00,,,-99.99,,2013-04-06 09:42:00,
2013-04-06 03:22:00,53.0,48.0,30.01,North,-999,0.0,0.0,84,0.00,,,-99.99,,2013-04-06 10:22:00,
2013-04-06 03:32:00,53.0,48.0,30.01,North,-999,0.0,0.0,84,0.00,,,-99.99,,2013-04-06 10:32:00,
2013-04-06 03:42:00,53.0,48.0,30.01,North,-999,0.0,0.0,84,0.00,,,-99.99,,2013-04-06 10:42:00,
2013-04-06 04:22:00,53.0,48.0,30.00,North,-999,0.0,0.0,84,0.00,,,-99.99,,2013-04-06 11:22:00,
2013-04-06 04:32:00,53.0,48.0,30.00,North,-999,0.0,0.0,84,0.00,,,-99.99,,2013-04-06 11:32:00,
2013-04-06 04:42:00,53.0,48.0,30.00,North,-999,0.0,0.0,84,0.00,,,-99.99,,2013-04-06 11:42:00,
2013-04-06 05:22:00,53.0,49.0,29.99,North,-999,0.0,0.0,85,0.00,,,-99.99,,2013-04-06 12:22:00,
2013-04-06 05:32:00,53.0,49.0,29.99,North,-999,0.0,0.0,85,0.00,,,-99.99,,2013-04-06 12:32:00,
2013-04-06 05:43:00,53.0,49.0,29.99,North,-999,0.0,0.0,85,0.00,,,-99.99,,2013-04-06 12:43:00,
2013-04-06 06:23:00,53.0,49.0,30.01,North,-999,0.0,0.0,86,0.00,,,-99.99,,2013-04-06 13:23:00,
2013-04-06 06:32:00,53.0,49.0,30.01,North,-999,0.0,0.0,86,0.00,,,-99.99,,2013-04-06 13:32:00,
2013-04-06 06:42:00,53.0,49.0,30.01,North,-999,0.0,0.0,86,0.00,,,-99.99,,2013-04-06 13:42:00,
2013-04-06 07:22:00,52.0,48.0,30.03,North,-999,0.0,0.0,86,0.00,,,-99.99,,2013-04-06 14:22:00,
2013-04-06 07:32:00,52.0,48.0,30.03,North,-999,0.0,0.0,86,0.00,,,-99.99,,2013-04-06 14:32:00,
2013-04-06 07:42:00,52.0,48.0,30.03,North,-999,0.0,0.0,86,0.00,,,-99.99,,2013-04-06 14:42:00,
2013-04-06 08:22:00,52.0,48.0,30.04,North,0,0.0,1.0,85,0.00,,,-99.99,,2013-04-06 15:22:00,
2013-04-06 08:33:00,52.0,48.0,30.04,North,0,0.0,1.0,85,0.00,,,-99.99,,2013-04-06 15:33:00,
2013-04-06 08:42:00,52.0,48.0,30.04,North,0,0.0,1.0,85,0.00,,,-99.99,,2013-04-06 15:42:00,
2013-04-06 09:23:00,55.0,49.0,30.05,North,-999,0.0,0.0,80,0.00,,,-99.99,,2013-04-06 16:23:00,
2013-04-06 09:32:00,55.0,49.0,30.05,North,-999,0.0,0.0,80,0.00,,,-99.99,,2013-04-06 16:32:00,
2013-04-06 09:42:00,55.0,49.0,30.05,North,-999,0.0,0.0,80,0.00,,,-99.99,,2013-04-06 16:42:00,
2013-04-06 10:22:00,59.0,48.0,30.04,North,0,0.0,1.0,66,0.00,,,-99.99,,2013-04-06 17:22:00,
2013-04-06 10:32:00,59.0,48.0,30.04,North,0,0.0,1.0,66,0.00,,,-99.99,,2013-04-06 17:32:00,
2013-04-06 10:42:00,59.0,48.0,30.04,North,0,0.0,1.0,66,0.00,,,-99.99,,2013-04-06 17:42:00,
2013-04-06 11:23:00,62.0,47.0,30.04,North,0,0.0,7.0,59,0.00,,,-99.99,,2013-04-06 18:23:00,
2013-04-06 11:32:00,62.0,47.0,30.04,North,0,0.0,7.0,59,0.00,,,-99.99,,2013-04-06 18:32:00,
2013-04-06 11:42:00,62.0,47.0,30.04,North,0,0.0,7.0,59,0.00,,,-99.99,,2013-04-06 18:42:00,
2013-04-06 12:22:00,64.0,45.0,30.04,North,0,0.0,9.0,51,0.00,,,-99.99,,2013-04-06 19:22:00,
2013-04-06 12:32:00,64.0,45.0,30.04,North,0,0.0,9.0,51,0.00,,,-99.99,,2013-04-06 19:32:00,
2013-04-06 12:42:00,64.0,45.0,30.04,North,0,0.0,9.0,51,0.00,,,-99.99,,2013-04-06 19:42:00,
2013-04-06 13:22:00,67.0,44.0,30.03,North,0,0.0,9.0,43,0.00,,,-99.99,,2013-04-06 20:22:00,
2013-04-06 13:32:00,67.0,44.0,30.03,North,0,0.0,9.0,43,0.00,,,-99.99,,2013-04-06 20:32:00,
2013-04-06 13:42:00,67.0,44.0,30.03,North,0,0.0,9.0,43,0.00,,,-99.99,,2013-04-06 20:42:00,
2013-04-06 14:22:00,70.0,44.0,30.01,North,0,0.0,13.0,39,0.00,,,-99.99,,2013-04-06 21:22:00,
2013-04-06 14:33:00,70.0,44.0,30.01,North,0,0.0,13.0,39,0.00,,,-99.99,,2013-04-06 21:33:00,
2013-04-06 14:43:00,70.0,44.0,30.01,North,0,0.0,13.0,39,0.00,,,-99.99,,2013-04-06 21:43:00,
2013-04-06 15:22:00,70.0,45.0,29.99,North,0,0.0,13.0,41,0.00,,,-99.99,,2013-04-06 22:22:00,
2013-04-06 15:34:00,70.0,45.0,29.99,North,0,0.0,13.0,41,0.00,,,-99.99,,2013-04-06 22:34:00,
2013-04-06 15:43:00,70.0,45.0,29.99,North,0,0.0,13.0,41,0.00,,,-99.99,,2013-04-06 22:43:00,
2013-04-06 16:23:00,74.0,45.0,29.96,North,0,0.0,13.0,35,0.00,,,-99.99,,2013-04-06 23:23:00,
2013-04-06 16:33:00,74.0,45.0,29.96,North,0,0.0,13.0,35,0.00,,,-99.99,,2013-04-06 23:33:00,
2013-04-06 16:42:00,74.0,45.0,29.96,North,0,0.0,13.0,35,0.00,,,-99.99,,2013-04-06 23:42:00,
2013-04-06 17:22:00,71.0,47.0,29.95,South,190,1.0,13.0,42,0.00,,,-99.99,,2013-04-07 00:22:00,
2013-04-06 17:32:00,71.0,47.0,29.95,South,190,1.0,13.0,42,0.00,,,-99.99,,2013-04-07 00:32:00,
2013-04-06 17:42:00,71.0,47.0,29.95,South,190,1.0,13.0,42,0.00,,,-99.99,,2013-04-07 00:42:00,
2013-04-06 18:22:00,70.0,49.0,29.96,North,0,0.0,17.0,47,0.00,,,-99.99,,2013-04-07 01:22:00,
2013-04-06 18:32:00,70.0,49.0,29.96,North,0,0.0,17.0,47,0.00,,,-99.99,,2013-04-07 01:32:00,
2013-04-06 18:42:00,70.0,49.0,29.96,North,0,0.0,17.0,47,0.00,,,-99.99,,2013-04-07 01:42:00,
2013-04-06 19:23:00,64.0,48.0,29.96,North,0,0.0,13.0,56,0.00,,,-99.99,,2013-04-07 02:23:00,
2013-04-06 19:32:00,64.0,48.0,29.96,North,0,0.0,13.0,56,0.00,,,-99.99,,2013-04-07 02:32:00,
2013-04-06 19:42:00,64.0,48.0,29.96,North,0,0.0,13.0,56,0.00,,,-99.99,,2013-04-07 02:42:00,
2013-04-06 20:22:00,60.0,48.0,29.97,North,-999,0.0,0.0,64,0.00,,,-99.99,,2013-04-07 03:22:00,
2013-04-06 20:33:00,60.0,48.0,29.97,North,-999,0.0,0.0,64,0.00,,,-99.99,,2013-04-07 03:33:00,
2013-04-06 20:43:00,60.0,48.0,29.97,North,-999,0.0,0.0,64,0.00,,,-99.99,,2013-04-07 03:43:00,
2013-04-06 21:23:00,59.0,48.0,29.98,North,-999,0.0,0.0,67,0.00,,,-99.99,,2013-04-07 04:23:00,
2013-04-06 21:32:00,59.0,48.0,29.98,North,-999,0.0,0.0,67,0.00,,,-99.99,,2013-04-07 04:32:00,
2013-04-06 21:43:00,59.0,48.0,29.98,North,-999,0.0,0.0,67,0.00,,,-99.99,,2013-04-07 04:43:00,
2013-04-06 22:22:00,57.0,48.0,29.98,North,-999,0.0,0.0,71,0.00,,,-99.99,,2013-04-07 05:22:00,
2013-04-06 22:33:00,57.0,48.0,29.98,North,-999,0.0,0.0,71,0.00,,,-99.99,,2013-04-07 05:33:00,
2013-04-06 22:42:00,57.0,48.0,29.98,North,-999,0.0,0.0,71,0.00,,,-99.99,,2013-04-07 05:42:00,
2013-04-06 23:22:00,55.0,47.0,29.98,North,-999,0.0,0.0,75,0.00,,,-99.99,,2013-04-07 06:22:00,
2013-04-06 23:32:00,55.0,47.0,29.98,North,-999,0.0,0.0,75,0.00,,,-99.99,,2013-04-07 06:32:00,
2013-04-06 23:42:00,55.0,47.0,29.98,North,-999,0.0,0.0,75,0.00,,,-99.99,,2013-04-07 06:42:00,